Regional Weather Roundup
Issued by NWS Sterling, VA

Home | Current Version | Previous Version | Graphics & Text | Print | Product List | Glossary On
Versions: 1 2 3 4 5 6 7 8 9 10 11 12 13 14 15 16 17 18 19 20 21 22 23 24 25 26 27 28 29 30 31 32 33 34 35 36 37 38 39 40 41 42 43 44 45 46 47 48 49 50
000
ASUS41 KLWX 262210
RWRLWX

REGIONAL WEATHER ROUNDUP
NATIONAL WEATHER SERVICE BALTIMORE MD/WASHINGTON DC
500 PM EST WED NOV 26 2014

Note: "FAIR" indicates few or no clouds below 12,000 feet
with no significant weather and/or obstructions to visibility.
 TC=TEMPERATURE CELSIUS

 * =Non NWS site. Station does not report precipitation (e.g. rain,
    snow, etc.), thunder, or fog.

DCZ001-MDZ009-015-VAZ040>042-051-053>054-262300-
WASHINGTON METRO

CITY           SKY/WX    TMP DP  RH WIND       PRES   REMARKS
WASHINGTON NAT FLURRIES  38  33  82 NW9       29.96S
DULLES         FLURRIES  33  32  96 NW9       29.96S WCI  25
ANDREWS AFB    LGT RAIN  36  32  87 NW10      29.93S WCI  28
FT BELVOIR     LGT RAIN  36  32  87 NW7       29.97S
QUANTICO       FLURRIES  36  32  85 N9        29.98R WCI  29
COLLEGE PARK*  CLOUDY    36  34  93 N7        29.94S
LEESBURG*      MIX PCPN  34  34 100 NW10      29.97S WCI  26
MANASSAS*      CLOUDY    36  36 100 N8        29.98R
GAITHERSBURG*  CLOUDY    34  30  86 NW6       29.98R

$$

MDZ006>007-011-014-262300-
BALTIMORE METRO

CITY           SKY/WX    TMP DP  RH WIND       PRES   REMARKS
BWI AIRPORT    FLURRIES  35  33  92 NW9       29.93R WCI  28
MD SCIENCE CTR   N/A     36  33  89 MISG      29.93R
MARTIN STATE   LGT RAIN  37  36  93 NW10G16   29.94R
ANNAPOLIS      LGT RAIN  38  35  89 NW16      29.91R WCI  29
FORT MEADE*    CLOUDY    34  32  93 NW6       29.96R

$$

MDZ012-015-019>023-262300-
MARYLAND EASTERN SHORE

CITY           SKY/WX    TMP DP  RH WIND       PRES   REMARKS
OCEAN CITY     LGT RAIN  41  39  93 N17G23    29.78R FOG
SALISBURY      LGT RAIN  42  38  85 NW14      29.82R FOG
BAY BRIDGE AP* LGT RAIN  37  36  93 NW21G29   29.91R WCI  27
CAMBRIDGE*     CLOUDY    37  36  93 NW15G23   29.87R WCI  28
EASTON*        HVY RAIN  37  37 100 N13G18    29.92R

$$

MDZ017>025-262300-
SOUTHERN MARYLAND

CITY           SKY/WX    TMP DP  RH WIND       PRES   REMARKS
PATUXENT RIVER LGT RAIN  38  35  89 NW22G29   29.91R FOG     WCI  27
ST INIGOES     LGT RAIN  38  34  85 NW9G20    29.91R FOG
LEONARDTOWN*   CLOUDY    36  34  93 NW9       29.92R WCI  29

$$

MDZ003>005-262300-
NORTH CENTRAL MARYLAND

CITY           SKY/WX    TMP DP  RH WIND       PRES   REMARKS
FREDERICK*     LGT RAIN  36  32  87 CALM      29.99S
HAGERSTOWN APT SNOW      33  32  96 NW6       29.96S VSB 1/2
WESTMINSTER*   LGT SNOW  34  32  93 N7        29.92S

$$

MDZ501>502-262300-
WESTERN MARYLAND

CITY           SKY/WX    TMP DP  RH WIND       PRES   REMARKS
OAKLAND*       FOG       30 N/A N/A NW5       29.92R VSB<1/4
CUMBERLAND*    CLOUDY    34  34 100 CALM      30.03S

$$

VAZ025>031-262300-
SHENANDOAH VALLEY

CITY           SKY/WX    TMP DP  RH WIND       PRES   REMARKS
WINCHESTER*    LGT RAIN  36  32  87 W3        29.97F
FRONT ROYAL*   NOT AVBL
LURAY*         SNOW      34  34 100 CALM      29.98S VSB 1/4
NEW MARKET*    CLOUDY    33  32  99 CALM      29.98R
STAUNTON*        N/A    N/A N/A N/A MISG        N/A
WAYNESBORO*    CLOUDY    32  32  99 CALM      29.96R

$$

WVZ021-048>050-054>055-262300-
EASTERN WEST VIRGINIA PANHANDLE

CITY           SKY/WX    TMP DP  RH WIND       PRES   REMARKS
MARTINSBURG    CLOUDY    35  31  85 NW5       29.98S
PETERSBURG*    MIX PCPN  34  33  96 CALM      30.00S

$$

VAZ036>039-050-262300-
CENTRAL FOOTHILLS

CITY           SKY/WX    TMP DP  RH WIND       PRES   REMARKS
CHARLOTTESVILL CLOUDY    37  35  92 CALM      29.96S
CULPEPER*      LGT RAIN  36  36 100 N3        29.98R
ORANGE*        DRIZZLE   36  34  93 CALM      29.98S
GORDONSVILLE*  CLOUDY    35  34  95 CALM      29.97S
WARRENTON*     LGT RAIN  36  36 100 CALM      29.97R

$$

VAZ055>057-262300-
NORTH AND CENTRAL PIEDMONT

CITY           SKY/WX    TMP DP  RH WIND       PRES   REMARKS
FREDERICKSBRG* LGT RAIN  37  37 100 NW8       29.97R
STAFFORD*      LGT RAIN  34  34 100 NW7       30.01R

$$

NCZ024-NYZ072-PAZ021-071-VAZ022-071-262300-
OTHER REGIONAL OBSERVATIONS

CITY           SKY/WX    TMP DP  RH WIND       PRES   REMARKS
NEW YORK CITY  MIX PCPN  37  33  85 N18G33    29.82S WCI  27
PHILADELPHIA   LGT SNOW  36  33  89 N14       29.84R FOG     WCI  27
PITTSBURGH     LGT SNOW  33  31  92 N5        30.00S FOG
ROANOKE        MOCLDY    38  35  89 N6        30.00R
RICHMOND       LGT RAIN  38  35  89 NW15G21   29.95R
RALEIGH        LGT RAIN  43  37  79 NW5       30.00R

$$

ANZ530>537-262300-
MARINE OBSERVATIONS

STATION/POSITION TIME  TEMP    WIND        PRES
                       AIR SEA DIR/SP/G
                 (UTC) (F)     (DEG/KT/KT) (MB)
THOMAS PT LIGHT  2200   37 47  330/ 19/ 22 1013.6R
BALT KEY BRIDGE  2200   38     320/ 15/ 18 1012.9R
COVE POINT       2200   38     350/ 27/ 32 1012.1R
LEWISETTA        2200   39 49  330/ 13/ 19 1012.6R
SOLOMONS ISLAND  2200      49                N/A
PINEY POINT      2200          340/ 23/ 25   N/A

$$




USA.gov is the U.S. government's official web portal to all federal, state and local government web resources and services.